Location: Newark
(49.2191°N, 12.6671°E)
Time: 06:11:16
(UTC+00:00)

Transit 4A - Pass Details

Date: 25 January 2020
Orbit: 872 x 973 km, 66.8° (Epoch: 19 February)

Event Time Altitude Azimuth Distance (km) Brightness Sun altitude
Rises 06:04:15 0° 213° (SSW) 3,543 10.8 -7.6°
Reaches altitude 10° 06:06:46 10° 213° (SSW) 2,590 10.1 -7.3°
Maximum altitude 06:12:47 88° 127° (SE) 900 7.9 -6.3°
Drops below altitude 10° 06:18:42 10° 36° (NE) 2,547 10.4 -5.5°
Sets 06:21:10 0° 37° (NE) 3,482 11.1 -5.1°
